Location: Burgwalden
(48.2830°N, 10.7576°E)
Time: 21:55:42
(UTC+00:00)

CZ-2C R/B - Pass Details

Date: 26 September 2023
Orbit: 783 x 869 km, 98.3° (Epoch: 09 December)

Event Time Altitude Azimuth Distance (km) Brightness Sun altitude
Exits shadow 01:28:19 40° 39° (NE) 1,156 3.7 -34.0°
Drops below altitude 10° 01:32:20 10° 357° (N) 2,383 5.5 -33.6°
Sets 01:34:47 0° 351° (N) 3,329 6.2 -33.3°
